CDT,Max TemperatureF,Mean TemperatureF,Min TemperatureF,Max Dew PointF,MeanDew PointF,Min DewpointF,Max Humidity, Mean Humidity, Min Humidity, Max Sea Level PressureIn, Mean Sea Level PressureIn, Min Sea Level PressureIn, Max VisibilityMiles, Mean VisibilityMiles, Min VisibilityMiles, Max Wind SpeedMPH, Mean Wind SpeedMPH, Max Gust SpeedMPH,PrecipitationIn, CloudCover, Events, WindDirDegrees
2013-10-1,78,64,50,52,46,37,100,59,23,29.99,29.92,29.78,10,10,8,20,8,25,0.00,0,,62
2013-10-2,84,70,57,64,59,48,100,70,42,29.97,29.89,29.80,10,10,2,20,9,38,0.09,2,Rain-Thunderstorm,155
2013-10-3,75,67,59,64,62,59,100,88,65,29.90,29.78,29.71,10,9,1,22,12,28,1.42,5,Rain-Thunderstorm,117
2013-10-4,84,63,42,70,57,34,100,78,45,29.94,29.74,29.61,10,10,10,24,15,34,0.00,5,Thunderstorm,148
2013-10-5,48,44,39,37,33,32,93,69,54,29.97,29.92,29.86,10,10,5,30,17,37,0.01,4,Rain,271
2013-10-6,62,50,39,41,36,25,93,68,24,30.07,29.95,29.86,10,10,5,26,18,34,0.00,5,Rain,317
2013-10-7,75,55,35,41,38,32,100,59,26,30.10,30.05,29.98,10,10,10,15,9,23,0.00,0,,235
2013-10-8,77,64,50,46,41,39,71,48,28,29.98,29.91,29.84,10,10,10,28,14,38,0.00,0,,183
2013-10-9,80,68,55,54,49,46,77,58,32,29.96,29.92,29.88,10,10,10,22,15,30,0.00,0,,164
2013-10-10,80,68,57,57,55,54,88,66,42,29.96,29.86,29.73,10,10,10,25,14,32,0.00,0,,167
2013-10-11,75,60,46,57,50,41,88,64,31,29.94,29.72,29.59,10,10,10,26,17,32,0.00,2,Rain,219
2013-10-12,64,52,39,43,35,28,100,62,26,30.29,30.14,29.95,10,10,3,16,7,24,0.00,0,,305
2013-10-13,68,54,41,37,34,32,87,50,26,30.40,30.31,30.24,10,10,10,18,8,24,0.00,3,,127
2013-10-14,59,52,46,59,48,34,100,86,44,30.23,29.95,29.71,10,8,1,24,15,32,1.18,7,Rain-Thunderstorm,161
2013-10-15,50,46,41,45,37,34,82,74,66,30.13,30.01,29.86,10,10,10,29,21,37,0.00,8,,310
2013-10-16,55,45,35,37,34,19,100,68,25,30.13,30.05,29.96,10,10,10,15,10,20,0.00,3,,302
2013-10-17,55,44,32,41,35,32,100,76,58,30.10,29.98,29.91,10,10,10,22,9,30,0.00,3,,302
2013-10-18,50,41,32,32,29,25,100,73,37,30.16,30.09,30.03,10,10,10,12,7,,0.00,1,,295
2013-10-19,62,47,32,37,34,28,100,68,34,30.03,29.90,29.81,10,10,10,17,8,22,0.00,2,,259
2013-10-20,64,50,37,41,37,34,93,64,36,30.05,29.84,29.74,10,10,10,22,10,29,0.00,2,,311
2013-10-21,55,42,28,37,33,28,100,76,41,30.11,30.04,29.93,10,10,10,15,7,20,0.00,3,,265
2013-10-22,55,42,28,43,38,28,100,75,50,30.14,30.01,29.91,10,10,10,20,11,34,0.00,3,Rain,327
2013-10-23,62,46,30,41,36,28,100,80,42,30.22,30.10,29.99,10,10,10,24,6,33,0.00,4,,271
2013-10-24,48,39,30,37,27,19,100,68,34,30.42,30.35,30.23,10,10,10,17,6,25,0.00,3,,320
2013-10-25,59,46,32,32,30,25,87,59,34,30.39,30.24,30.08,10,10,10,22,10,29,0.00,3,,209
2013-10-26,51,42,32,37,29,23,93,62,33,30.26,30.17,30.05,10,10,10,24,9,30,0.00,0,,332
2013-10-27,73,52,32,39,32,25,80,55,25,30.15,29.94,29.80,10,10,10,20,9,26,0.00,0,,218
2013-10-28,50,44,37,39,36,32,87,71,58,30.16,30.08,29.95,10,10,10,23,14,28,0.00,3,Rain-Thunderstorm,57
2013-10-29,48,44,41,48,45,41,100,98,87,30.12,30.01,29.94,10,3,0,15,11,20,0.00,8,Fog-Rain,60
2013-10-30,50,41,32,48,41,32,100,99,93,30.00,29.88,29.77,10,6,0,15,8,26,0.07,7,Fog-Rain-Thunderstorm,339
2013-10-31,57,44,32,41,36,32,100,78,38,29.76,29.64,29.55,10,8,0,28,9,36,0.00,0,Fog,287